This is the latest recevied weather packets stored in our database for station/object KB4NWJ. If no packets are shown the sender has not sent any weather packets the latest 10 day(s).
| Time | Temp. | Humidity | Pressure | Rain* | Wind** | Luminosity | Snow |
|---|---|---|---|---|---|---|---|
| 1777757424 | 19.44° C | 41% | 1015 hPa | 0 mm | - | 304 W/m² | - |
| 1777757122 | 20° C | 37% | 1014.7 hPa | 0 mm | - | 278 W/m² | - |
| 1777756819 | 20° C | 39% | 1014.6 hPa | 0 mm | - | 396 W/m² | - |
| 1777756515 | 18.89° C | 37% | 1014.5 hPa | 0 mm | - | 418 W/m² | - |
| 1777756212 | 18.89° C | 36% | 1014.6 hPa | 0 mm | - | 447 W/m² | - |
| 1777755909 | 19.44° C | 39% | 1014.5 hPa | 0 mm | - | 441 W/m² | - |
| 1777755606 | 18.89° C | 36% | 1014.6 hPa | 0 mm | - | 451 W/m² | - |
| 1777755302 | 19.44° C | 35% | 1014.5 hPa | 0 mm | - | 466 W/m² | - |
| 1777755000 | 19.44° C | 39% | 1014.3 hPa | 0 mm | - | 449 W/m² | - |
| 1777754696 | 18.89° C | 39% | 1014.3 hPa | 0 mm | - | 470 W/m² | - |
| 1777754394 | 19.44° C | 39% | 1014.3 hPa | 0 mm | - | 479 W/m² | - |
| 1777754091 | 18.89° C | 38% | 1014.2 hPa | 0 mm | - | 529 W/m² | - |
| 1777753788 | 18.89° C | 39% | 1014.5 hPa | 0 mm | - | 464 W/m² | - |
| 1777753484 | 18.89° C | 38% | 1014.5 hPa | 0 mm | - | 512 W/m² | - |
| 1777753183 | 19.44° C | 38% | 1014.4 hPa | 0 mm | - | 554 W/m² | - |
| 1777752878 | 20° C | 36% | 1014.3 hPa | 0 mm | - | 554 W/m² | - |
| 1777752575 | 18.89° C | 38% | 1014.4 hPa | 0 mm | - | 557 W/m² | - |
| 1777752271 | 18.89° C | 39% | 1014.5 hPa | 0 mm | - | 582 W/m² | - |
| 1777751969 | 18.33° C | 40% | 1014.5 hPa | 0 mm | - | 567 W/m² | - |
| 1777751665 | 18.33° C | 39% | 1014.7 hPa | 0 mm | - | 579 W/m² | - |
| 1777751362 | 19.44° C | 39% | 1014.9 hPa | 0 mm | - | 606 W/m² | - |
| 1777751059 | 18.89° C | 40% | 1014.4 hPa | 0 mm | - | 615 W/m² | - |
| 1777750755 | 18.89° C | 41% | 1014.5 hPa | 0 mm | - | 619 W/m² | - |
| 1777750452 | 18.89° C | 42% | 1014.5 hPa | 0 mm | - | 598 W/m² | - |
| 1777750147 | 18.33° C | 40% | 1014.6 hPa | 0 mm | - | 586 W/m² | - |
* Rain latest hour (hover to see other rain measurements)
** Current wind speed in m/s (hover to see current wind gust speed)